Wind_Speed
11 6 9 13 7 2 8 12 16 15 13 14 13 8 20 10 7 11 21 31 26 24 19 16 15 14 12 11 11 12 11 11 12 13 12 11 13 12 11 11 11 11 9 8 7 7 8 7 7
6 12 15 4 1 9 10 18 16 12 11 7 8 12 19 15 17 17 18 26 25 21 20 16 16 13 12 12 12 11 11 11 11 11 10 11 11 11 11 11 11 11 10 9 8 7 6 6 6
10 14 9 4 4 10 12 17 13 10 8 3 10 13 11 14 19 14 25 25 22 23 19 16 16 14 13 13 12 11 10 11 10 10 11 11 11 11 11 11 10 10 9 9 8 7 7 6 6
7 7 7 4 17 16 17 10 14 12 12 8 18 14 18 17 14 23 23 22 22 21 17 18 16 14 13 13 12 11 11 9 10 9 10 10 10 10 10 10 11 10 9 9 8 8 7 7 4
16 7 11 12 7 16 13 8 7 12 14 7 21 16 10 12 21 22 22 21 20 24 18 17 16 15 14 13 12 11 11 9 9 9 9 10 10 10 10 12 12 11 10 9 7 7 6 4 4
10 12 3 1 20 16 10 10 14 11 15 13 16 15 12 15 20 21 20 20 22 21 19 17 16 15 14 13 13 12 11 11 10 10 10 10 11 11 10 11 11 11 10 9 8 6 5 4 4
13 13 11 10 8 15 7 19 5 14 15 13 16 16 12 15 20 20 19 19 23 22 19 17 15 15 14 13 13 12 11 10 10 10 10 10 11 12 10 10 9 9 8 9 8 8 7 6 5
13 14 22 17 5 8 10 16 8 16 13 8 9 8 16 17 21 20 19 19 21 23 19 17 16 15 13 13 13 11 11 11 10 10 10 10 11 12 10 9 8 8 7 6 6 7 6 5 5
20 13 14 3 6 11 10 17 15 13 10 13 5 4 23 23 21 19 19 18 20 23 22 20 17 15 16 13 13 12 11 10 9 8 8 9 6 7 7 6 4 5 5 4 4 4 5 5 3
13 13 13 7 9 10 9 16 11 10 12 13 14 21 26 24 22 19 18 17 19 19 22 24 21 17 21 16 14 11 9 8 7 5 7 5 11 8 5 4 3 5 3 3 5 4 5 5 3
17 17 14 3 6 8 19 13 8 10 3 16 16 16 17 21 20 19 18 19 19 17 18 25 22 19 23 21 16 17 14 15 9 11 9 10 7 7 7 7 7 6 3 6 5 6 7 8 11
16 17 12 8 5 7 8 13 8 10 16 16 15 17 17 17 15 17 17 17 19 17 16 18 21 16 10 21 13 21 20 17 13 10 9 5 4 5 5 15 7 11 9 6 3 8 2 2 6
15 17 9 3 4 11 7 14 12 13 19 16 16 17 17 16 18 19 18 16 19 18 17 12 22 17 13 8 13 14 13 13 9 12 10 10 7 6 3 4 7 3 5 0 2 4 2 1 4
15 15 19 7 8 7 12 8 9 17 20 18 16 16 16 16 18 18 19 19 17 22 20 17 20 18 16 11 9 11 9 12 10 9 12 9 4 6 4 5 7 3 2 2 7 7 3 1 5
18 10 17 14 9 8 10 12 13 17 19 19 17 15 16 14 20 18 19 19 18 22 25 20 17 24 19 17 11 10 11 10 12 10 10 8 6 5 4 4 7 4 6 3 4 2 3 5 10
16 15 14 18 15 14 9 15 13 6 18 18 17 15 15 15 18 19 19 19 22 19 29 24 21 22 23 20 17 14 14 14 14 13 13 13 12 10 7 8 6 7 5 4 8 2 7 5 5
13 15 18 19 20 10 13 12 18 16 15 17 14 14 15 14 15 20 20 21 23 18 29 27 23 25 24 21 19 18 15 15 14 14 14 16 15 14 13 10 11 9 6 5 5 6 6 6 6
12 16 18 15 12 11 15 13 22 23 17 18 17 15 14 15 16 20 23 23 24 24 27 27 25 21 27 23 21 18 16 15 16 14 16 17 16 13 15 11 11 7 7 9 8 8 4 5 10
18 20 19 16 15 15 11 13 11 7 13 14 18 18 17 15 18 21 26 25 26 30 25 30 28 27 30 26 24 20 21 18 17 18 18 16 16 15 17 14 15 14 12 9 3 3 8 8 11
20 19 13 16 19 9 9 14 12 25 18 14 13 18 18 18 17 20 23 26 28 30 33 30 31 30 28 27 24 23 20 22 22 23 23 21 16 16 14 15 14 15 13 11 9 8 11 11 15
11 13 12 17 13 3 3 12 13 16 15 13 11 7 16 18 20 19 22 27 28 30 33 34 33 33 35 26 25 21 18 21 20 26 26 21 21 19 19 17 16 13 8 6 12 11 10 12 13
13 15 17 18 15 11 11 11 13 17 12 10 13 13 19 14 20 21 22 28 32 29 33 34 36 33 33 36 25 26 22 17 21 16 20 22 19 17 23 24 17 18 13 11 12 13 14 13 14
14 14 11 15 16 17 14 9 12 9 13 19 10 15 13 14 16 22 24 33 37 36 33 37 35 35 30 31 31 27 23 23 19 23 18 14 20 33 26 21 21 16 16 17 12 12 12 12 12
8 9 12 11 10 13 18 17 16 13 13 9 13 12 15 16 16 18 28 36 37 39 38 36 35 34 34 31 36 28 28 24 19 17 15 12 13 19 20 19 16 18 18 17 16 14 12 11 12
7 12 8 10 11 12 17 18 16 17 15 13 13 16 11 11 14 10 13 22 33 38 38 37 38 33 31 31 30 34 20 29 17 1 2 2 6 10 15 19 17 17 16 15 13 11 7 9 9
12 13 10 13 12 10 11 17 15 19 16 8 6 5 5 8 17 7 8 4 31 39 40 41 42 38 33 30 23 21 20 11 11 8 4 7 12 15 13 18 18 16 12 9 6 7 6 6 4
12 12 15 15 16 13 13 18 13 2 7 7 4 8 12 11 15 5 9 12 15 35 38 41 39 34 28 22 26 23 20 20 17 12 3 5 14 15 17 15 18 7 4 5 5 2 1 1 1
14 12 7 6 10 12 12 14 6 17 5 1 7 6 4 5 9 11 7 9 29 25 32 22 42 38 25 30 30 29 24 18 14 12 9 30 24 20 17 23 7 9 7 5 5 4 1 1 3
9 11 11 11 8 9 9 3 9 9 5 4 9 10 10 11 9 4 13 21 26 28 31 31 38 35 32 32 27 25 24 15 13 13 24 21 14 17 7 5 9 12 10 8 6 4 3 4 5
6 4 2 5 8 9 11 14 10 13 14 13 11 13 2 7 6 7 10 19 22 23 24 26 27 27 27 26 22 19 15 14 12 13 15 12 12 10 9 11 12 10 9 6 3 2 4 4 6
Wind_Direction
256 267 254 262 274 176 276 78 51 41 68 47 46 80 78 72 92 118 145 110 120 125 130 134 136 124 120 113 106 99 96 95 97 91 83 81 86 77 75 74 73 70 69 77 85 96 92 86 89
245 239 243 301 147 273 63 70 67 60 52 113 63 55 82 73 104 119 117 116 120 129 134 134 133 128 124 118 112 107 103 99 101 93 97 90 85 84 80 76 73 67 67 75 87 99 107 102 93
247 261 261 204 265 233 79 72 94 100 82 32 106 41 51 105 116 115 123 120 126 131 134 145 138 132 125 126 122 116 109 112 113 105 103 96 91 84 79 74 68 64 65 72 85 102 111 108 91
243 220 240 209 225 235 77 89 66 95 108 38 123 77 94 114 126 124 132 129 132 133 134 144 144 134 133 132 127 124 118 112 110 105 101 94 86 83 75 67 63 58 61 66 86 101 114 116 94
236 274 260 346 292 99 94 98 121 120 89 75 105 114 104 99 115 138 135 138 141 130 135 142 147 140 139 138 136 131 124 123 118 111 106 102 94 82 75 71 67 65 64 62 74 97 108 110 95
252 244 268 253 243 108 122 124 98 71 101 109 96 120 103 118 138 145 143 146 143 128 141 146 149 146 146 149 146 140 138 134 129 123 118 110 100 92 85 78 70 65 67 69 70 78 104 110 101
256 271 239 306 208 98 103 94 82 73 70 80 148 116 130 150 153 151 155 149 143 135 145 152 155 153 153 156 154 146 143 138 136 131 126 120 110 104 97 83 68 60 62 70 81 79 86 99 103
245 271 276 212 192 139 104 81 77 90 74 130 172 123 153 155 162 155 159 153 144 144 150 157 161 158 156 162 157 153 151 148 147 140 140 135 128 112 107 88 74 67 66 66 80 89 95 102 100
255 273 289 142 99 115 151 111 82 100 128 71 46 170 151 153 162 164 158 158 155 153 155 162 163 165 164 160 165 159 161 158 158 152 159 167 140 140 125 139 83 74 72 78 97 120 130 125 128
241 260 254 347 24 73 126 104 114 142 141 115 90 106 134 161 163 171 164 168 161 165 162 162 164 172 172 160 174 161 169 170 168 189 215 220 194 171 164 174 145 124 129 92 126 174 180 188 251
232 253 318 88 21 320 112 136 129 182 180 137 135 140 149 166 167 173 173 176 166 175 163 160 166 177 170 162 160 177 189 192 205 221 233 258 202 179 241 222 243 224 202 205 226 194 238 259 271
239 257 289 60 106 261 260 125 116 77 92 109 137 146 159 170 172 177 176 180 161 173 169 161 160 182 171 161 157 191 187 194 203 195 225 196 204 224 297 220 212 261 240 226 343 205 88 11 336
240 265 254 272 224 260 258 148 128 119 107 121 138 149 163 175 174 183 176 181 168 174 164 169 160 177 204 170 174 199 193 179 210 181 210 225 202 217 268 296 205 264 120 184 87 114 129 84 287
238 249 275 228 230 225 268 161 167 123 127 136 150 160 165 179 178 184 178 183 185 167 171 184 163 178 194 206 187 210 191 189 202 206 195 208 165 197 228 278 246 280 144 81 51 73 33 275 247
256 230 254 272 226 242 238 262 176 143 142 148 162 168 169 186 184 184 187 182 188 168 170 186 179 179 188 201 212 192 208 207 196 214 180 189 226 220 261 263 271 232 180 256 222 113 275 253 251
264 258 260 237 235 227 209 245 20 147 156 159 170 171 173 189 190 185 188 182 181 186 167 176 191 183 187 197 203 204 213 206 206 208 207 204 211 221 223 246 295 185 188 226 217 147 269 274 297
234 238 232 261 210 222 203 239 141 202 178 164 174 174 182 182 204 181 189 182 177 195 166 176 192 183 189 192 200 207 218 209 217 209 220 205 202 222 211 240 256 203 211 246 202 259 217 280 273
216 227 257 243 179 201 241 231 191 201 181 172 171 186 191 185 199 189 190 189 182 188 175 178 192 200 189 188 200 211 221 213 222 224 221 210 204 219 216 220 233 175 226 257 220 225 242 289 297
258 221 225 257 245 192 224 254 145 294 190 197 178 181 187 198 187 205 191 192 189 183 183 180 189 202 184 183 192 209 206 211 217 230 231 223 213 225 223 211 252 217 220 247 167 236 260 250 246
249 266 285 277 273 216 193 250 248 182 197 208 213 187 188 186 194 189 200 199 193 187 186 183 188 199 190 190 196 204 207 211 212 220 226 223 223 229 237 224 235 218 209 222 212 228 252 268 266
266 270 266 264 284 67 224 260 283 267 190 191 215 220 206 191 187 188 192 201 205 195 186 189 191 196 202 197 202 211 213 220 218 216 222 213 217 224 234 233 222 236 226 238 224 219 231 256 287
244 243 245 267 268 259 186 251 256 266 245 212 199 195 233 220 191 191 189 195 202 203 196 195 195 200 199 200 200 204 212 218 224 227 220 204 204 244 227 229 222 228 235 229 223 222 228 240 268
261 282 280 238 258 274 238 217 248 253 232 223 212 257 267 239 238 199 194 194 196 198 201 199 196 199 203 201 204 204 204 216 226 226 222 199 212 226 228 221 217 222 228 230 225 220 222 240 266
277 272 267 280 267 252 251 265 263 257 231 247 197 225 250 254 267 236 199 194 192 195 200 192 195 196 202 204 205 210 204 209 214 220 196 186 186 220 228 237 235 235 233 232 237 244 236 241 268
214 251 243 230 231 246 242 243 250 257 267 237 210 216 259 255 265 268 251 189 188 191 196 192 188 192 197 206 207 212 214 209 222 152 99 277 282 251 266 261 239 238 238 244 245 246 234 252 254
209 241 248 257 244 273 309 237 253 236 239 58 24 326 334 319 307 318 332 247 189 192 194 191 187 185 189 193 208 213 217 192 168 129 70 335 302 283 273 262 251 238 234 230 217 216 260 264 271
256 209 235 268 284 285 282 288 284 100 185 190 160 246 239 240 248 9 313 318 292 195 196 194 184 168 161 186 196 193 182 167 149 147 118 309 298 267 263 257 237 191 151 168 189 211 244 211 311
255 274 288 247 272 276 278 286 29 27 49 250 240 320 143 94 51 22 346 8 44 35 191 161 134 139 188 183 170 162 151 151 159 139 23 324 278 265 261 233 162 139 146 126 105 107 117 359 341
214 252 258 285 305 310 299 73 48 22 185 302 320 342 67 63 53 2 71 61 59 67 84 110 123 139 152 157 151 156 164 164 196 273 305 275 265 264 244 126 126 118 124 132 99 52 350 65 34
294 333 7 256 263 262 279 289 324 37 4 10 357 347 104 97 137 122 91 87 76 77 86 98 110 114 128 142 159 179 187 204 269 300 289 247 230 191 142 132 123 120 115 100 85 42 46 48 18
Height
757 758 757 755 771 759 758 740 723 738 742 732 730 744 757 762 770 803 773 777 786 793 799 803 804 807 809 811 812 814 815 815 816 816 816 817 817 817 817 817 817 816 816 816 816 816 817 818 818
759 758 753 753 796 775 748 728 747 744 738 733 736 742 755 772 759 765 773 781 789 795 800 803 805 808 810 811 813 815 816 817 818 819 819 819 819 818 818 818 818 818 818 817 817 818 818 818 818
758 756 754 759 776 790 751 734 738 735 731 734 742 745 753 772 765 768 777 785 792 797 801 803 807 809 811 813 814 816 818 819 820 820 821 821 821 821 821 821 820 820 820 820 819 819 819 819 820
757 751 748 771 780 759 731 730 727 734 736 734 741 766 762 765 767 774 780 787 794 799 803 805 808 810 812 814 816 818 820 822 822 823 824 824 824 824 824 823 823 823 823 823 821 821 821 821 821
754 743 756 777 737 724 723 723 723 737 740 745 744 771 773 768 771 778 782 788 793 799 804 806 809 811 814 816 818 820 822 823 824 826 826 826 827 827 827 827 826 825 825 825 824 823 823 823 822
751 740 766 822 762 721 717 712 722 733 736 745 757 765 772 773 777 780 784 788 792 799 806 808 810 812 815 817 818 820 822 823 825 826 827 828 828 829 830 829 829 828 827 827 827 826 825 825 824
754 747 761 759 734 732 723 711 727 731 736 746 745 768 772 774 777 780 783 787 791 799 806 810 811 813 815 818 820 822 824 825 826 827 828 828 829 830 831 831 831 831 830 829 829 829 828 828 826
740 738 747 744 741 742 718 716 720 734 747 735 735 764 777 771 775 779 781 785 790 798 805 809 812 814 816 819 822 823 825 825 826 827 828 828 829 830 830 831 832 832 832 832 831 831 830 830 829
728 752 745 728 721 727 712 723 722 726 737 739 744 742 758 769 773 778 780 784 789 795 801 807 812 815 817 820 821 823 825 826 827 827 828 829 830 829 830 832 832 832 832 832 833 832 831 831 830
741 751 736 708 705 718 711 720 725 734 738 747 750 752 760 768 771 775 779 783 787 791 796 802 808 812 814 817 820 823 826 826 826 827 828 828 830 831 831 831 830 831 832 832 832 833 833 833 833
732 744 715 710 709 705 717 723 719 729 744 741 753 757 762 766 769 772 776 780 785 790 793 797 803 807 810 812 817 821 822 824 825 826 826 828 828 830 829 830 830 830 830 830 831 832 832 833 831
741 721 714 709 710 712 713 712 726 724 734 735 743 752 761 765 768 771 775 778 782 788 793 796 801 805 808 809 814 817 818 820 823 825 826 827 827 829 828 828 829 829 829 829 829 831 831 831 830
733 723 712 709 712 711 704 715 720 726 726 736 745 752 759 764 767 770 774 778 781 788 792 795 799 805 807 810 811 814 816 818 821 822 824 825 825 827 827 827 827 826 827 828 828 829 830 831 830
721 721 715 710 712 711 717 713 715 724 724 737 746 752 757 761 765 768 771 776 779 784 790 795 798 803 807 809 811 813 814 816 818 820 821 824 825 825 825 826 825 827 826 827 827 828 830 830 830
720 733 723 714 712 717 711 728 727 719 725 737 744 749 754 759 761 765 769 773 777 781 786 793 797 800 806 808 810 811 814 815 817 818 820 823 825 826 826 825 825 825 825 825 825 826 827 826 827
738 733 752 720 713 709 717 747 738 720 722 738 740 745 751 756 758 762 766 770 774 778 782 789 795 798 803 806 808 810 812 813 814 816 817 819 822 822 824 825 824 823 824 824 825 825 825 824 823
742 762 749 731 703 711 720 738 738 744 719 733 738 742 747 752 755 758 763 767 771 776 778 784 791 794 797 803 806 808 809 811 812 813 814 814 817 819 821 820 820 823 823 823 823 824 824 824 823
761 760 744 736 712 713 720 725 719 714 716 724 729 736 742 747 751 753 758 763 767 772 776 780 786 790 792 798 802 805 806 807 809 810 811 811 813 814 815 817 818 818 821 822 821 821 821 822 822
734 735 739 720 700 715 723 721 720 724 713 719 720 727 733 739 743 749 753 758 762 766 771 776 782 786 787 791 795 800 801 804 807 807 808 810 811 813 814 813 815 816 818 819 820 821 821 820 819
731 737 737 719 702 711 720 727 707 712 710 712 714 718 722 727 734 741 748 752 756 760 765 770 775 780 783 787 790 794 797 799 800 801 802 807 811 813 814 813 814 814 815 815 817 819 820 820 818
733 739 739 736 713 711 724 737 725 706 698 704 706 709 711 715 723 730 738 745 750 754 758 762 767 771 776 782 787 791 792 793 793 794 799 805 808 810 811 812 810 809 812 815 816 816 818 818 817
751 724 728 729 733 752 721 771 739 719 710 703 704 709 713 704 709 715 723 731 739 746 753 757 761 767 771 776 781 784 786 788 788 789 795 800 804 809 805 808 808 806 807 810 811 811 813 815 815
738 716 722 726 736 737 735 752 735 712 718 708 702 701 698 696 697 701 706 714 722 733 741 748 755 761 768 771 775 778 781 784 786 786 789 792 797 804 804 804 802 803 804 807 809 812 810 813 814
716 727 729 730 738 765 743 744 738 720 710 701 698 695 693 691 688 686 689 698 709 718 725 735 745 752 761 767 770 771 773 778 781 782 784 789 793 800 799 801 797 798 802 804 807 810 810 811 813
728 745 770 775 768 768 725 735 725 701 690 688 690 692 685 683 682 681 679 685 697 705 713 723 732 744 754 761 765 768 772 774 778 781 783 785 787 790 793 795 794 795 799 802 805 806 808 809 807
734 741 763 780 766 747 714 738 714 678 674 680 681 684 684 684 682 680 680 680 686 693 701 708 717 729 742 755 766 772 775 776 776 779 782 787 789 792 790 791 790 791 793 797 800 802 806 807 807
731 744 725 748 737 749 731 708 683 675 679 679 684 685 683 680 679 680 682 682 681 682 690 697 708 722 742 757 750 759 769 771 771 774 777 779 785 786 786 787 783 786 790 797 799 802 804 805 806
724 713 748 740 777 780 744 730 730 702 692 685 686 683 680 679 681 685 685 686 687 683 685 699 712 727 743 741 748 751 757 765 771 770 769 780 785 783 777 768 782 787 789 796 799 801 805 805 807
732 738 734 733 744 766 765 742 697 704 697 695 689 683 685 686 687 688 689 697 702 701 699 707 715 726 740 749 747 754 758 763 766 764 758 770 779 784 780 780 782 785 792 797 799 801 803 805 805
713 724 728 751 761 745 748 743 694 697 692 691 689 685 680 682 680 680 685 695 707 716 721 723 725 730 739 745 753 762 762 764 765 764 769 775 777 779 781 784 787 790 794 798 799 801 802 803 804